EW9033 Weather Reports


time (UTC)temp
C
wind
direction
speed
KPH
gust
KPH
rain 1hr
cm
rain 24hr
cm
rain mn
cm
humidity
%
barometer
mb
20260508013007 9 302 0.0 4.8 0.00 0.00 0.00 57 1012.2
20260508012506 9 304 1.6 4.8 0.00 0.00 0.00 57 1012.2
20260508012004 10 308 0.0 4.8 0.00 0.00 0.00 57 1012.2
20260508011513 10 327 0.0 6.4 0.00 0.00 0.00 56 1012.1
20260508011003 10 319 1.6 6.4 0.00 0.00 0.00 55 1012.0
20260508010503 10 309 1.6 8.0 0.00 0.00 0.00 55 1012.0
20260508010013 10 327 1.6 8.0 0.00 0.00 0.00 55 1012.0
20260508005505 10 331 3.2 9.7 0.00 0.00 0.00 54 1011.9
20260508005006 10 322 4.8 9.7 0.00 0.00 0.00 54 1011.8
20260508004509 10 321 1.6 12.9 0.00 0.00 0.00 53 1011.8
20260508004004 11 322 3.2 22.5 0.00 0.00 0.00 52 1011.7
20260508003507 11 292 8.0 22.5 0.00 0.00 0.00 51 1011.7
20260508003010 11 312 11.3 19.3 0.00 0.00 0.00 51 1011.6
20260508002504 11 296 6.4 17.7 0.00 0.00 0.00 50 1011.4
20260508002004 11 15 4.8 11.3 0.00 0.00 0.00 50 1011.4
20260508001511 11 5 1.6 17.7 0.00 0.00 0.00 49 1011.2
20260508001004 11 326 8.0 17.7 0.00 0.00 0.00 48 1011.2
20260508000504 11 328 4.8 12.9 0.00 0.00 0.00 46 1011.1
20260508000008 11 309 4.8 16.1 0.00 0.00 0.00 45 1011.0
20260507235504 12 327 6.4 20.9 0.00 0.00 0.00 44 1010.9
20260507234004 12 306 11.3 25.7 0.00 0.00 0.00 40 1010.9
20260507233504 12 341 9.7 19.3 0.00 0.00 0.00 40 1010.8
20260507232504 12 292 8.0 29.0 0.00 0.00 0.00 39 1010.7
20260507232003 12 294 11.3 27.4 0.00 0.00 0.00 39 1010.7
20260507231510 12 348 14.5 27.4 0.00 0.00 0.00 39 1010.6
20260507231007 12 319 8.0 24.1 0.00 0.00 0.00 40 1010.5
20260507230509 12 237 9.7 24.1 0.00 0.00 0.00 40 1010.5
20260507230008 12 338 16.1 29.0 0.00 0.00 0.00 39 1010.4
20260507225504 12 301 8.0 29.0 0.00 0.00 0.00 38 1010.4
20260507225007 13 295 9.7 19.3 0.00 0.00 0.00 40 1010.4
20260507223010 13 302 8.0 17.7 0.00 0.00 0.00 38 1010.2
20260507222504 13 300 3.2 29.0 0.00 0.00 0.00 39 1010.2
20260507222004 13 315 11.3 29.0 0.00 0.00 0.00 37 1010.1
20260507221517 13 320 4.8 17.7 0.00 0.00 0.00 38 1010.1
20260507221007 13 211 6.4 20.9 0.00 0.00 0.00 41 1010.1
20260507220506 14 241 11.3 20.9 0.00 0.00 0.00 36 1010.0
20260507220013 14 275 11.3 20.9 0.00 0.00 0.00 37 1009.9
20260507215505 14 292 3.2 19.3 0.00 0.00 0.00 40 1009.9
20260507215005 14 315 11.3 19.3 0.00 0.00 0.00 39 1009.8
20260507214509 14 327 11.3 29.0 0.00 0.00 0.00 38 1009.8
20260507214002 13 360 12.9 29.0 0.00 0.00 0.00 38 1009.8
20260507213509 14 333 12.9 27.4 0.00 0.00 0.00 37 1009.7
20260507212507 14 321 8.0 25.7 0.00 0.00 0.00 36 1009.6
20260507212003 15 321 12.9 25.7 0.00 0.00 0.00 36 1009.7
20260507211519 15 333 6.4 22.5 0.00 0.00 0.00 34 1009.7
20260507211004 15 294 6.4 25.7 0.00 0.00 0.00 39 1009.6
20260507210502 13 313 12.9 25.7 0.00 0.00 0.00 36 1009.5
20260507210031 14 329 8.0 19.3 0.00 0.00 0.00 38 1009.5
20260507205503 15 318 3.2 20.9 0.00 0.00 0.00 36 1009.5
20260507205004 15 317 8.0 27.4 0.00 0.00 0.00 40 1009.5
20260507204509 14 267 12.9 27.4 0.00 0.00 0.00 39 1009.5
20260507204003 14 262 17.7 27.4 0.00 0.00 0.00 37 1009.5
20260507203503 13 262 11.3 24.1 0.00 0.00 0.00 38 1009.5
20260507203009 13 300 12.9 24.1 0.00 0.00 0.00 40 1009.4
20260507201509 14 333 14.5 27.4 0.00 0.00 0.00 39 1009.5
20260507201003 13 207 8.0 25.7 0.00 0.00 0.00 38 1009.5
20260507200504 13 263 11.3 25.7 0.00 0.00 0.00 38 1009.6
20260507200010 13 275 16.1 27.4 0.00 0.00 0.00 38 1009.6
20260507195506 14 254 16.1 27.4 0.00 0.00 0.00 36 1009.6
20260507195004 13 350 11.3 20.9 0.00 0.00 0.00 38 1009.7
20260507194508 13 302 14.5 25.7 0.00 0.00 0.00 37 1009.7
20260507194002 15 300 8.0 25.7 0.00 0.00 0.00 37 1009.8
20260507193506 15 291 6.4 17.7 0.00 0.00 0.00 38 1009.7
20260507193010 15 37 4.8 19.3 0.00 0.00 0.00 39 1009.8
20260507192502 15 264 8.0 19.3 0.00 0.00 0.00 38 1009.7
20260507192006 15 278 3.2 24.1 0.00 0.00 0.00 37 1009.8
20260507190504 14 270 11.3 22.5 0.00 0.00 0.00 36 1009.8
20260507185503 14 301 4.8 24.1 0.00 0.00 0.00 42 1009.8
20260507185005 13 254 6.4 19.3 0.00 0.00 0.00 43 1009.9
20260507184515 13 284 8.0 19.3 0.00 0.00 0.00 43 1010.0
20260507184006 13 281 9.7 22.5 0.00 0.00 0.00 40 1010.1
20260507183508 13 315 8.0 22.5 0.00 0.00 0.00 41 1010.1
20260507183010 13 250 9.7 20.9 0.00 0.00 0.00 42 1010.1
20260507182507 13 320 6.4 20.9 0.00 0.00 0.00 39 1010.1
20260507182007 13 300 9.7 17.7 0.00 0.00 0.00 43 1010.1
20260507181508 13 279 9.7 20.9 0.00 0.00 0.00 43 1010.1
20260507180010 13 26 11.3 20.9 0.00 0.00 0.00 42 1010.2
20260507175504 13 13 4.8 19.3 0.00 0.00 0.00 43 1010.3
20260507175004 13 271 6.4 22.5 0.00 0.00 0.00 43 1010.3
20260507174513 13 304 6.4 22.5 0.00 0.00 0.00 44 1010.3
20260507174003 13 340 8.0 17.7 0.00 0.00 0.00 42 1010.4
20260507173503 13 326 8.0 16.1 0.00 0.00 0.00 44 1010.4
20260507173011 13 281 3.2 16.1 0.00 0.00 0.00 44 1010.5
20260507172504 13 329 6.4 16.1 0.00 0.00 0.00 44 1010.6
20260507172004 12 202 6.4 22.5 0.00 0.00 0.00 45 1010.6
20260507171512 12 331 14.5 22.5 0.00 0.00 0.00 44 1010.7
20260507171005 12 281 6.4 20.9 0.00 0.00 0.00 46 1010.7
20260507170506 12 259 6.4 17.7 0.00 0.00 0.00 48 1010.7
20260507170010 12 279 4.8 17.7 0.00 0.00 0.00 49 1010.8
20260507165003 12 176 4.8 14.5 0.00 0.00 0.00 49 1010.8
20260507164006 12 209 8.0 17.7 0.00 0.00 0.00 50 1010.9
20260507163504 12 256 8.0 17.7 0.00 0.00 0.00 49 1010.9
20260507163009 12 314 4.8 16.1 0.00 0.00 0.00 53 1011.0
20260507162505 12 274 3.2 11.3 0.00 0.00 0.00 50 1011.1
20260507162004 12 290 4.8 16.1 0.00 0.00 0.00 51 1011.1
20260507161509 12 301 4.8 16.1 0.00 0.00 0.00 50 1011.1
20260507161004 12 340 8.0 16.1 0.00 0.00 0.00 49 1011.1
20260507160506 12 330 8.0 17.7 0.00 0.00 0.00 47 1011.1
20260507160013 12 285 6.4 17.7 0.00 0.00 0.00 47 1011.2
20260507155505 12 306 9.7 17.7 0.00 0.00 0.00 44 1011.2
20260507154516 12 298 3.2 17.7 0.00 0.00 0.00 47 1011.2
20260507154003 12 299 9.7 17.7 0.00 0.00 0.00 50 1011.4
20260507153504 12 284 6.4 16.1 0.00 0.00 0.00 46 1011.3
20260507153023 12 217 6.4 20.9 0.00 0.00 0.00 50 1011.4
20260507152510 12 236 8.0 20.9 0.00 0.00 0.00 45 1011.4
20260507152012 12 154 11.3 24.1 0.00 0.00 0.00 47 1011.4
20260507151526 12 269 12.9 24.1 0.00 0.00 0.00 48 1011.5
20260507151011 12 257 8.0 16.1 0.00 0.00 0.00 49 1011.5
20260507150511 12 338 1.6 24.1 0.00 0.00 0.00 50 1011.7
20260507150027 12 277 8.0 24.1 0.00 0.00 0.00 47 1011.8
20260507145510 12 241 3.2 17.7 0.00 0.00 0.00 50 1011.7
20260507145010 12 208 8.0 17.7 0.00 0.00 0.00 54 1011.8
20260507144526 12 256 3.2 16.1 0.00 0.00 0.00 54 1011.9
20260507144010 12 265 4.8 17.7 0.00 0.00 0.00 53 1012.0
20260507143504 11 239 9.7 17.7 0.00 0.00 0.00 52 1012.1
20260507142503 11 248 6.4 17.7 0.00 0.00 0.00 56 1012.2
20260507142012 11 293 9.7 16.1 0.00 0.00 0.00 55 1012.3
20260507141511 11 261 4.8 19.3 0.00 0.00 0.00 57 1012.3
20260507141004 11 210 8.0 19.3 0.00 0.00 0.00 58 1012.3
20260507140504 11 276 3.2 11.3 0.00 0.00 0.00 59 1012.4
20260507140012 11 229 4.8 14.5 0.00 0.00 0.00 61 1012.4
20260507135505 10 247 6.4 16.1 0.00 0.00 0.00 61 1012.5
20260507135005 10 346 8.0 16.1 0.00 0.00 0.00 61 1012.5
20260507134510 10 76 3.2 14.5 0.00 0.00 0.00 63 1012.5
20260507133503 10 284 4.8 12.9 0.00 0.00 0.00 64 1012.7
20260507133008 10 303 4.8 12.9 0.00 0.00 0.00 65 1012.7
20260507132503 10 252 4.8 9.7 0.00 0.00 0.00 65 1012.7
20260507132006 10 244 1.6 9.7 0.00 0.00 0.00 68 1012.7
20260507131517 9 221 1.6 16.1 0.00 0.00 0.00 68 1012.7
20260507131003 9 182 4.8 16.1 0.00 0.00 0.00 68 1012.8
20260507130505 8 240 4.8 11.3 0.00 0.00 0.00 71 1012.8
20260507130021 8 169 1.6 11.3 0.00 0.00 0.00 72 1012.7
20260507125508 8 229 4.8 9.7 0.00 0.00 0.00 75 1012.8
20260507125008 8 271 4.8 9.7 0.00 0.00 0.00 75 1012.7
20260507124511 7 252 1.6 11.3 0.00 0.00 0.00 79 1012.8
20260507124003 7 187 3.2 11.3 0.00 0.00 0.00 83 1012.7
20260507122502 6 198 1.6 6.4 0.00 0.00 0.00 91 1012.7
20260507122006 6 200 1.6 8.0 0.00 0.00 0.00 92 1012.7
20260507121512 5 151 1.6 8.0 0.00 0.00 0.00 93 1012.8
20260507121004 5 159 3.2 6.4 0.00 0.00 0.00 93 1012.7
20260507120509 5 176 0.0 4.8 0.00 0.00 0.00 93 1012.7
20260507120020 5 175 0.0 4.8 0.00 0.00 0.00 94 1012.7
20260507115505 4 92 0.0 1.6 0.00 0.00 0.00 94 1012.7
20260507115004 3 17 0.0 0.0 0.00 0.00 0.00 94 1012.8
20260507114509 3 17 0.0 0.0 0.00 0.00 0.00 94 1012.8
20260507114005 3 17 0.0 0.0 0.00 0.00 0.00 94 1012.8
20260507113503 2 17 0.0 0.0 0.00 0.00 0.00 94 1012.8
20260507113010 2 17 0.0 0.0 0.00 0.00 0.00 93 1012.7
20260507112005 1 17 0.0 0.0 0.00 0.00 0.00 93 1012.5
20260507111513 1 17 0.0 0.0 0.00 0.00 0.00 93 1012.5
20260507111003 1 17 0.0 0.0 0.00 0.00 0.00 92 1012.5
20260507110014 1 17 0.0 0.0 0.00 0.00 0.00 92 1012.4
20260507105508 1 17 0.0 0.0 0.00 0.00 0.00 92 1012.3
20260507105003 1 17 0.0 0.0 0.00 0.00 0.00 92 1012.3
20260507104515 1 17 0.0 0.0 0.00 0.00 0.00 92 1012.3
20260507104006 1 17 0.0 0.0 0.00 0.00 0.00 92 1012.3
20260507103503 1 17 0.0 0.0 0.00 0.00 0.00 92 1012.3
20260507103026 1 17 0.0 0.0 0.00 0.00 0.00 92 1012.2
20260507102503 1 17 0.0 0.0 0.00 0.00 0.00 91 1012.1
20260507102003 1 17 0.0 0.0 0.00 0.00 0.00 91 1012.1
20260507101510 1 17 0.0 0.0 0.00 0.00 0.00 91 1012.1
20260507101005 1 17 0.0 0.0 0.00 0.00 0.00 91 1012.2
20260507100505 1 17 0.0 0.0 0.00 0.00 0.00 91 1012.2
20260507100012 1 17 0.0 0.0 0.00 0.00 0.00 91 1012.1
20260507095506 1 17 0.0 0.0 0.00 0.00 0.00 91 1012.1
20260507095004 1 17 0.0 0.0 0.00 0.00 0.00 91 1012.2
20260507094511 1 17 0.0 0.0 0.00 0.00 0.00 91 1012.2
20260507094003 1 17 0.0 0.0 0.00 0.00 0.00 91 1012.1
20260507093503 1 17 0.0 0.0 0.00 0.00 0.00 91 1012.1
20260507093010 1 17 0.0 0.0 0.00 0.00 0.00 91 1012.1
20260507092507 1 17 0.0 0.0 0.00 0.00 0.00 90 1012.2
20260507092003 1 17 0.0 0.0 0.00 0.00 0.00 90 1012.3
20260507091509 1 17 0.0 0.0 0.00 0.00 0.00 90 1012.2
20260507091004 1 17 0.0 0.0 0.00 0.00 0.00 90 1012.3
20260507090505 2 17 0.0 0.0 0.00 0.00 0.00 90 1012.3
20260507090012 2 17 0.0 1.6 0.00 0.00 0.00 90 1012.2
20260507085504 2 17 0.0 1.6 0.00 0.00 0.00 90 1012.1
20260507085004 2 17 0.0 0.0 0.00 0.00 0.00 90 1012.2
20260507084511 2 17 0.0 3.2 0.00 0.00 0.00 90 1012.2
20260507084004 2 17 0.0 3.2 0.00 0.00 0.00 90 1012.2
20260507083504 2 17 0.0 3.2 0.00 0.00 0.00 89 1012.2
20260507083010 2 17 0.0 0.0 0.00 0.00 0.00 89 1012.3
20260507082504 2 17 0.0 0.0 0.00 0.00 0.00 89 1012.3
20260507082003 2 17 0.0 0.0 0.00 0.00 0.00 89 1012.2
20260507081508 2 17 0.0 1.6 0.00 0.00 0.00 89 1012.2
20260507081008 2 17 0.0 1.6 0.00 0.00 0.00 89 1012.3
20260507080507 3 17 0.0 1.6 0.00 0.00 0.00 89 1012.3
20260507080036 3 17 0.0 0.0 0.00 0.00 0.00 88 1012.3
20260507075511 3 17 0.0 0.0 0.00 0.00 0.00 88 1012.4
20260507075010 3 17 0.0 0.0 0.00 0.00 0.00 88 1012.4
20260507074528 3 17 0.0 0.0 0.00 0.00 0.00 88 1012.4
20260507074012 3 17 0.0 0.0 0.00 0.00 0.00 87 1012.4
20260507073512 3 17 0.0 0.0 0.00 0.00 0.00 87 1012.4
20260507073029 3 17 0.0 0.0 0.00 0.00 0.00 87 1012.3
20260507072509 3 17 0.0 0.0 0.00 0.00 0.00 87 1012.3
20260507072012 3 17 0.0 0.0 0.00 0.00 0.00 86 1012.4
20260507071556 4 17 0.0 0.0 0.00 0.00 0.00 86 1012.5
20260507071009 4 17 0.0 0.0 0.00 0.00 0.00 86 1012.4
20260507070511 4 17 0.0 0.0 0.00 0.00 0.00 85 1012.5
20260507070030 4 17 0.0 0.0 0.00 0.00 0.00 85 1012.6
20260507065511 5 17 0.0 0.0 0.00 0.00 0.00 85 1012.5
20260507065010 5 17 0.0 1.6 0.00 0.00 0.00 84 1012.5
20260507064527 5 17 0.0 1.6 0.00 0.00 0.00 84 1012.5
20260507064015 5 17 0.0 1.6 0.00 0.00 0.00 83 1012.4
20260507063514 5 17 0.0 0.0 0.00 0.00 0.00 82 1012.4
20260507063025 5 17 0.0 0.0 0.00 0.00 0.00 82 1012.5
20260507062514 5 17 0.0 0.0 0.00 0.00 0.00 81 1012.4
20260507062010 5 17 0.0 3.2 0.00 0.00 0.00 81 1012.5
20260507061529 6 17 0.0 3.2 0.00 0.00 0.00 81 1012.7
20260507061010 6 17 0.0 0.0 0.00 0.00 0.00 81 1012.8
20260507060509 6 17 0.0 0.0 0.00 0.00 0.00 80 1012.8
20260507060030 6 17 0.0 0.0 0.00 0.00 0.00 80 1012.8
20260507055508 6 17 0.0 0.0 0.00 0.00 0.00 80 1012.8
20260507055012 6 17 0.0 0.0 0.00 0.00 0.00 80 1012.8
20260507054526 6 17 0.0 0.0 0.00 0.00 0.00 80 1012.7
20260507054012 6 17 0.0 0.0 0.00 0.00 0.00 79 1012.8
20260507053508 6 17 0.0 0.0 0.00 0.00 0.00 79 1012.9
20260507053032 6 17 0.0 0.0 0.00 0.00 0.00 79 1013.0
20260507052511 7 17 0.0 0.0 0.00 0.00 0.00 78 1013.1
20260507052010 7 17 0.0 0.0 0.00 0.00 0.00 77 1013.2
20260507051531 7 17 0.0 1.6 0.00 0.00 0.00 77 1013.3
20260507051010 7 17 0.0 1.6 0.00 0.00 0.00 77 1013.3
20260507050509 7 17 0.0 0.0 0.00 0.00 0.00 75 1013.3
20260507050035 7 17 0.0 0.0 0.00 0.00 0.00 73 1013.3
20260507045510 7 17 0.0 1.6 0.00 0.00 0.00 73 1013.3
20260507045012 7 17 0.0 1.6 0.00 0.00 0.00 73 1013.3
20260507044529 7 17 0.0 4.8 0.00 0.00 0.00 73 1013.4
20260507044008 7 17 0.0 4.8 0.00 0.00 0.00 73 1013.3
20260507043507 7 345 0.0 4.8 0.00 0.00 0.00 74 1013.3
20260507043026 7 44 0.0 1.6 0.00 0.00 0.00 73 1013.4
20260507042510 7 44 0.0 3.2 0.00 0.00 0.00 73 1013.3
20260507042008 7 28 0.0 3.2 0.00 0.00 0.00 72 1013.3
20260507041529 7 346 0.0 1.6 0.00 0.00 0.00 71 1013.3
20260507041007 7 346 0.0 3.2 0.00 0.00 0.00 71 1013.3
20260507040512 7 13 0.0 3.2 0.00 0.00 0.00 70 1013.3
20260507040028 7 360 0.0 1.6 0.00 0.00 0.00 70 1013.2
20260507035503 7 360 0.0 1.6 0.00 0.00 0.00 70 1013.2
20260507035003 7 360 0.0 1.6 0.00 0.00 0.00 69 1013.2
20260507034516 7 360 0.0 3.2 0.00 0.00 0.00 69 1013.2
20260507033016 7 344 0.0 4.8 0.00 0.00 0.00 68 1013.0
20260507032506 7 344 0.0 4.8 0.00 0.00 0.00 68 1013.0
20260507032003 7 360 0.0 4.8 0.00 0.00 0.00 68 1012.9
20260507031512 7 44 0.0 1.6 0.00 0.00 0.00 68 1012.9
20260507031004 8 44 0.0 1.6 0.00 0.00 0.00 68 1013.0
20260507030506 8 44 0.0 0.0 0.00 0.00 0.00 67 1013.0
20260507030013 8 44 0.0 0.0 0.00 0.00 0.00 66 1013.0
20260507025504 8 44 0.0 0.0 0.00 0.00 0.00 66 1013.0
20260507025002 8 44 0.0 0.0 0.00 0.00 0.00 66 1012.8
20260507024509 8 44 0.0 1.6 0.00 0.00 0.00 65 1012.8
20260507024006 8 44 0.0 1.6 0.00 0.00 0.00 64 1012.8
20260507023503 8 44 0.0 3.2 0.00 0.00 0.00 64 1012.8
20260507022003 8 28 0.0 6.4 0.00 0.00 0.00 64 1012.7
20260507021004 8 24 0.0 3.2 0.00 0.00 0.00 64 1012.5
20260507020503 8 28 0.0 3.2 0.00 0.00 0.00 63 1012.5
20260507020017 8 28 0.0 6.4 0.00 0.00 0.00 63 1012.5
20260507015503 8 46 1.6 8.0 0.00 0.00 0.00 63 1012.3
20260507015005 8 20 3.2 8.0 0.00 0.00 0.00 62 1012.4
20260507014513 8 19 1.6 6.4 0.00 0.00 0.00 62 1012.4
20260507014006 8 34 1.6 6.4 0.00 0.00 0.00 62 1012.2
20260507013503 9 5 0.0 6.4 0.00 0.00 0.00 62 1012.1